STARLINK-2621

operational
NORAD ID: 48370 Int'l Des: 2021-038 Owner: SPXS Country: US Constellation: starlink
LEOCIRCULARSTARLINK_TYPE

STARLINK-2621について

説明を読み込み中...

リアルタイム位置

3D地球を読み込み中...

次回通過

高度履歴

Altitude vs Time

uPlot chart will show altitude changes over time

軌道要素

1 48370U 21038T 25251.77575750 -.00000002 00000-0 18760-4 0 9993
2 48370 53.0555 88.2632 0001290 88.0727 272.0410 15.06393845239745
Epoch: Sep 8, 2025 • Age: 12 hours

現在のステータス

高度 553.8 km
速度 7.58 km/s
衛星直下点 -21.96°S, 165.25°W
打ち上げ日 May 4, 2021
運用期間 4.3 years
タイプ internet

技術仕様

分類 Payload
質量 260.00 kg
乾燥質量 248.00 kg
総質量 260.00 kg
長さ 0.20 m
直径 2.80 m
スパン 9.00 m
形状 Box + pan
製造者 SPXS
バスタイプ Starlink
フェーズステータス In Orbit
所有者/国 SPXS/US

大規模コンステレーション

Loading constellations...